Regional Weather Roundup
Issued by NWS

Home | Current Version | Previous Version | Graphics & Text | Print | Product List | Glossary On
Versions: 1 2 3 4 5 6 7 8 9 10 11 12 13 14 15 16 17 18 19 20 21 22 23 24 25 26 27 28 29 30 31 32 33 34 35 36 37 38 39 40 41 42 43 44 45 46 47 48 49 50
000
ASUS43 KLSX 200059
RWRMO

WEATHER SUMMARY FOR MISSOURI
NATIONAL WEATHER SERVICE SPRINGFIELD MO
700 PM CST FRI DEC 19 2014

NOTE: "FAIR" INDICATES FEW OR NO CLOUDS BELOW 12,000 FEET WITH NO
       SIGNIFICANT WEATHER AND/OR OBSTRUCTIONS TO VISIBILITY.
       CURRENT SKY AND/OR WEATHER CONDITIONS ARE NOT AVAILABLE FOR
       CHILLICOTHE AND FARMINGTON.

MOZ001>031-035>038-043-044-053-054-200200-
...NORTHERN AND WESTERN MISSOURI...

CITY           SKY/WX    TMP DP  RH WIND       PRES   REMARKS
KANSAS CTY INT CLOUDY    32  30  92 SW3       30.20S
KANSAS C DTWN  CLOUDY    35  31  85 CALM      30.21S
LEE`S SUMMIT   CLOUDY    34  32  92 E5        30.21S FOG     WCI  30
ST JOSEPH      CLOUDY    32  29  88 S6        30.21S WCI  26
CHILLICOTHE      N/A     34  31  88 CALM      30.23S
KIRKSVILLE     CLOUDY    32  30  92 SE8       30.23S FOG     WCI  25

$$
MOZ066>068-077>081-088>096-101>105-200200-
...SOUTHWEST MISSOURI...

CITY           SKY/WX    TMP DP  RH WIND       PRES   REMARKS
SPRINGFIELD    CLOUDY    38  36  92 S7        30.19R
JOPLIN         FOG       39  38  96 CALM      30.21R VSB 1/2

$$
MOZ032>034-039>042-045>050-055>058-069>072-200200-
...CENTRAL MISSOURI...

CITY           SKY/WX    TMP DP  RH WIND       PRES   REMARKS
COLUMBIA       CLOUDY    35  32  88 E6        30.22F
JEFFERSON CITY CLOUDY    37  32  82 E3        30.24S
ROLLA          CLOUDY    34  31  88 SE3       30.20S
SEDALIA        CLOUDY    36  34  92 SE7       30.22S FOG
WARRENSBURG    CLOUDY    34  34 100 CALM      30.22S FOG
OSAGE BEACH    CLOUDY    37  34  87 SE3       30.22S

$$
MOZ051-052-059>065-200200-
...EAST CENTRAL MISSOURI...

CITY           SKY/WX    TMP DP  RH WIND       PRES   REMARKS
ST LOUIS INTL  CLOUDY    36  28  73 E9        30.27S WCI  29
SPIRIT OF STL  CLOUDY    36  30  79 NE5       30.26S HAZE
ST CHARLES     CLOUDY    35  30  82 E6        30.27S

$$
MOZ072>076-082>087-097>100-106>115-200200-
...SOUTH CENTRAL AND SOUTHEAST MISSOURI...

CITY           SKY/WX    TMP DP  RH WIND       PRES   REMARKS
CAPE GIRARDEAU CLOUDY    38  33  82 NE5       30.25S
FARMINGTON     CLOUDY    34  32  93 N3        30.25R
POPLAR BLUFF   MIX PCPN  37  30  75 NE6       30.25R
WEST PLAINS    CLOUDY    36  32  85 E3        30.22S

$$


USA.gov is the U.S. government's official web portal to all federal, state and local government web resources and services.